User: anonymous   Login
Location: Monteux
(44.0348°N, 4.9972°E)
Time: 18:48:23
(UTC+00:00)
Language:

M6P - Orbit

View from above orbital plane
View from above orbital plane
View from above satellite
View from above satellite

Ground track
Ground track

The orbit data is extracted from the following two-line orbital elements,

1 44109U 19018AF  21172.46733128  .00001663  00000-0  52359-4 0  9998
2 44109  97.4266 249.6314 0054887 340.4568  19.4569 15.32994733124079
Epoch (UTC): 21 June 2021 11:12:57
Eccentricity: 0.0054887
inclination: 97.4266°
perigee height: 429 km
apogee height: 504 km
right ascension of ascending node: 249.6314°
argument of perigee: 340.4568°
revolutions per day: 15.32994733
mean anomaly at epoch: 19.4569°
orbit number at epoch: 12407

The dashed part of the orbit path shows where the satellite is in the earth's shadow,  

DLR